Вернуться в каталог

COSMOS 2539

АктивенНавигацияGEO
NORAD 44457·PAYLOAD·🇷🇺 Russia

Запущен Aug 5, 2019 с Baikonur Cosmodrome

Loading…

TLE

СвежийSource: Space-Track

Эпоха: Sep 14, 2026, 13:51 UTC

1 44457U 19048A   26257.57752770  .00000073  00000-0  00000-0 0  9998
2 44457   0.0166 126.3427 0000446 154.1072 293.0296  1.00271776 26121

Отслеживайте COSMOS 2539 в реальном времени с AllMySat

Download on the App Store